Content
SEND FEEDBACK

Daily
Averages
Monthly
Summary
United States of America

MERIZO, GUAM


Home > North America > United States > Guam
Elevation: 10 feet     Latitude: 13 14N     Longitude: 144 39E

WEATHER
 
SELECT A DAY
Number of Records: 354,566;   Date Range: 1/1/95 - 11/24/14
 
SHARE

PRINT THIS DATA

[ ← Previous Day ]
WEATHER ALMANAC - OCTOBER 1, 2013
[ Next Day → ]
[ °C ]   °F
Weather ElementAverageHighLow
Temperature79.7 °F86.9 °F (12:58 pm)74.7 °F (6:58 pm)
Dewpoint76 °F78.8 °F (12:13 am)71.6 °F (3:47 pm)
Humidity88.6 %100 % (12:13 am)76 % (12:58 pm)
Barometer29.78 in29.86 in (6:19 pm)29.67 in (12:58 pm)
Wind Speed9.5 mph26.5 mph (6:19 pm)
Wind Gust39.1 mph (6:19 pm)
Weather ElementAverage
Visibility9.1 mi
Wind DirectionSW (229.7 °)

Weather ElementTotal
Precipitation0.03 in
Cooling Degree Days15.8 (Base 65)
Growing Degree Days30.8 (Base 50)
Averaged from 70 records on October 1, 2013
WEATHER CONDITIONS BREAKOUT
WIND DIRECTION BREAKOUT
WEATHER BY HOUR - OCTOBER 1, 2013
[ °C ]   °F
Local TimeTemperatureDewpointHumidityBarometerVisibilityWind DirectionWind SpeedGust SpeedPrecipitationEventsConditions
12:13 AM78.8 °F78.8 °F100 %29.83 in10.0 miSW (220°)8.1 mphScattered Clouds
12:29 AM80.6 °F78.8 °F94 %29.82 in10.0 miSW (220°)9.2 mphThunderstormThunderstorm
12:44 AM80.6 °F77.0 °F89 %29.83 in10.0 miSW (220°)8.1 mphThunderstormClear
12:47 AM80.6 °F78.8 °F94 %29.83 in10.0 miSSW (210°)8.1 mphThunderstormThunderstorm
12:58 AM79.5 °F78.1 °F95 %29.70 in10.0 miWSW (240°)8.1 mphThunderstormThunderstorm
1:10 AM78.8 °F78.8 °F100 %29.82 in10.0 miWSW (250°)8.1 mphThunderstormPartly Cloudy
1:15 AM78.8 °F78.8 °F100 %29.82 in10.0 miWest (270°)5.8 mphThunderstormThunderstorm
1:30 AM78.8 °F77.0 °F94 %29.82 in10.0 miNorth (360°)5.8 mphThunderstormClear
1:58 AM77.7 °F77.2 °F98 %29.69 in10.0 miWest (260°)3.5 mphClear
2:11 AM77.0 °F77.0 °F100 %29.80 in10.0 miWSW (240°)6.9 mphThunderstormThunderstorm
2:26 AM78.8 °F77.0 °F94 %29.79 in10.0 miWSW (240°)9.2 mphClear
2:58 AM78.1 °F76.3 °F94 %29.68 in10.0 miSW (230°)9.2 mphClear
3:58 AM77.9 °F76.1 °F94 %29.68 in10.0 miSSW (210°)4.6 mphScattered Clouds
4:58 AM78.1 °F76.8 °F96 %29.68 in10.0 miSW (220°)5.8 mphScattered Clouds
5:58 AM78.3 °F77.0 °F96 %29.70 in10.0 miSSW (210°)5.8 mphScattered Clouds
6:58 AM79.2 °F77.5 °F95 %29.73 in10.0 miSW (220°)6.9 mphClear
7:58 AM80.8 °F77.7 °F90 %29.75 in10.0 miSSW (210°)4.6 mphClear
8:58 AM82.9 °F77.5 °F84 %29.75 in10.0 miSSW (210°)6.9 mphPartly Cloudy
9:58 AM85.1 °F78.4 °F80 %29.75 in10.0 miSouth (190°)11.5 mphPartly Cloudy
10:48 AM86.0 °F78.8 °F79 %29.85 in10.0 miSouth (180°)11.5 mphMostly Cloudy
10:58 AM86.2 °F78.4 °F78 %29.73 in10.0 miSouth (190°)9.2 mphMostly Cloudy
11:08 AM86.0 °F78.8 °F79 %29.84 in10.0 miSouth (180°)11.5 mphMostly Cloudy
11:18 AM86.0 °F78.8 °F79 %29.84 in10.0 miSouth (170°)11.5 mphMostly Cloudy
11:23 AM86.0 °F78.8 °F79 %29.84 in10.0 miSouth (180°)12.7 mphMostly Cloudy
11:33 AM86.0 °F78.8 °F79 %29.83 in10.0 miSouth (190°)12.7 mphMostly Cloudy
11:58 AM86.0 °F78.1 °F77 %29.70 in10.0 miSouth (180°)13.8 mphOvercast
12:08 PM86.0 °F78.8 °F79 %29.82 in10.0 miSouth (180°)13.8 mphMostly Cloudy
12:13 PM86.0 °F78.8 °F79 %29.82 in10.0 miSouth (180°)13.8 mphMostly Cloudy
12:18 PM86.0 °F78.8 °F79 %29.81 in10.0 miSouth (180°)13.8 mphScattered Clouds
12:58 PM86.9 °F78.4 °F76 %29.67 in10.0 miSouth (180°)12.7 mphMostly Cloudy
1:58 PM83.7 °F75.9 °F77 %29.67 in10.0 miSouth (180°)12.7 mphPartly Cloudy
2:14 PM82.4 °F75.2 °F79 %29.79 in10.0 miSouth (180°)10.4 mphThunderstormThunderstorm
2:17 PM82.4 °F75.2 °F79 %29.79 in10.0 miSouth (190°)9.2 mphRain-ThunderstormLight Thunderstorms and Rain
2:36 PM82.4 °F77.0 °F84 %29.79 in10.0 miVariable5.8 mphThunderstormThunderstorm
2:40 PM82.4 °F77.0 °F84 %29.79 in10.0 miSouth (180°)5.8 mphRainLight Rain
2:48 PM80.6 °F75.2 °F84 %29.79 in10.0 miSouth (180°)6.9 mphThunderstormScattered Clouds
2:54 PM80.6 °F73.4 °F79 %29.79 in10.0 miSouth (180°)8.1 mphThunderstormThunderstorm
2:58 PM80.2 °F73.6 °F80 %29.67 in5.0 miSouth (180°)6.9 mph0.00 inThunderstorm
3:01 PM80.6 °F75.2 °F84 %29.79 in4.0 miSouth (180°)6.9 mphRain-ThunderstormThunderstorms and Rain
3:06 PM78.8 °F75.2 °F89 %29.79 in1.0 miSSE (160°)4.6 mphRain-ThunderstormThunderstorms and Rain
3:09 PM77.0 °F73.4 °F89 %29.79 in0.8 miSE (140°)4.6 mphRainLight Rain
3:14 PM78.8 °F75.2 °F89 %29.79 in0.8 miSouth (170°)10.4 mphRainLight Rain
3:17 PM77.0 °F75.2 °F94 %29.79 in1.5 miSSW (200°)4.6 mphOvercast
3:22 PM78.8 °F77.0 °F94 %29.79 in4.0 miSouth (180°)5.8 mphOvercast
3:27 PM78.8 °F75.2 °F89 %29.79 in10.0 miSouth (190°)5.8 mphOvercast
3:32 PM78.8 °F75.2 °F89 %29.80 in10.0 miSSW (210°)4.6 mphOvercast
3:42 PM78.8 °F75.2 °F89 %29.80 in10.0 miSouth (170°)9.2 mphOvercast
3:47 PM75.2 °F71.6 °F89 %29.80 in10.0 miSE (140°)5.8 mphOvercast
3:52 PM75.2 °F71.6 °F89 %29.80 in10.0 miSSE (150°)4.6 mphMostly Cloudy
3:58 PM79.5 °F75.7 °F88 %29.68 in10.0 miSouth (180°)3.5 mph0.03 inMostly Cloudy
4:58 PM80.4 °F75.7 °F86 %29.69 in10.0 miSSW (200°)4.6 mphPartly Cloudy
5:48 PM80.6 °F77.0 °F89 %29.84 in10.0 miWNW (300°)3.5 mphMostly Cloudy
5:58 PM81.3 °F77.9 °F89 %29.73 in10.0 miNW (310°)5.8 mphMostly Cloudy
6:19 PM78.8 °F75.2 °F89 %29.86 in10.0 miNW (320°)26.5 mph39.1 mphLight Drizzle
6:24 PM77.0 °F73.4 °F89 %29.86 in9.0 miNNW (330°)21.9 mph39.1 mphRainLight Rain
6:31 PM75.2 °F73.4 °F94 %29.86 in8.0 miNNW (330°)24.2 mph31.1 mphOvercast
6:32 PM75.2 °F73.4 °F94 %29.86 in7.0 miNNW (340°)26.5 mph33.4 mphRainRain
6:47 PM75.2 °F73.4 °F94 %29.86 in9.0 miNNW (330°)13.8 mph28.8 mphLight Drizzle
6:52 PM75.2 °F73.4 °F94 %29.85 in9.0 miNNW (340°)12.7 mphRainLight Rain
6:57 PM75.2 °F73.4 °F94 %29.85 in10.0 miNNW (330°)12.7 mphRainLight Rain
6:58 PM74.7 °F73.4 °F96 %29.73 in10.0 miNNW (330°)12.7 mph0.00 inRainLight Rain
7:03 PM75.2 °F73.4 °F94 %29.84 in10.0 miNNW (330°)13.8 mphRainLight Rain
7:08 PM75.2 °F73.4 °F94 %29.83 in10.0 miNNW (340°)17.3 mphLight Drizzle
7:11 PM75.2 °F71.6 °F89 %29.83 in10.0 miNNW (340°)17.3 mphMostly Cloudy
7:21 PM75.2 °F73.4 °F94 %29.84 in10.0 miNNW (340°)15.0 mphThunderstormMostly Cloudy
7:58 PM75.9 °F73.4 °F92 %29.74 in10.0 miNNW (340°)12.7 mph0.00 inMostly Cloudy
8:58 PM75.6 °F74.1 °F95 %29.76 in10.0 miNW (320°)5.8 mphMostly Cloudy
9:58 PM76.6 °F73.6 °F90 %29.76 in10.0 miNW (320°)3.5 mphScattered Clouds
10:58 PM75.7 °F73.0 °F91 %29.76 in10.0 miWest (280°)4.6 mphMostly Cloudy
11:58 PM76.1 °F72.9 °F90 %29.73 in10.0 miWSW (250°)2.3 mphClear
Hourly data recorded from PGUA, located miles away from Merizo, Guam







STORIES FROM OUR PARTNERS